2024-173G (61233 NORAD) Tracking and Keplerian Element Data

This shows tracking and keplerian element data for the satellite.

Feedback or suggestion? Click here.




ElementValue
Catalog61233
Name2024-173G
Epoch Orbit280
Epoch Day286.84539972
Epoch Year2024
RAAN359.4653
Inclination97.4036
Eccentricity0.0012103
Argument of Perigee213.2602
Mean Anonmoly146.7878
Mean Motion15.26496494
Decay Rate0.00049093
L11 61233U 24173G 24286.84539972 .00049093 00000+0 18696-2 0 9997
L22 61233 97.4036 359.4653 0012103 213.2602 146.7878 15.26496494 2805



Live tracking and technical data element details for 2024-173G (NORAD 61233). 2024-173G can be tracked NOW for your location showing map with azimuth and elevation plus other details from your city location.







IsCatalogInMostPopularTable: catalog: 61233, numindb: 23
Update: records affected: 1



GetName: 61233 2024-173G

Hit Count: updated at: Wed, 04 Dec 2024 09:19:19 GMT